Probability
0 0 0 0 0 0 0 0 0 0 0 3 3 3 3 3 3 0 0 0 0 0 0 0 0 0 0 0 0 0 0 0 0 0 0 0 0 0 0 0 0 0 0
0 0 0 0 0 0 0 0 0 0 0 0 0 0 0 0 0 0 0 0 0 0 0 0 0 0 0 0 0 0 0 0 0 0 0 0 0 0 0 0 0 0 0
0 0 0 0 0 0 0 0 0 0 0 0 0 0 0 0 0 0 0 0 0 0 0 0 0 0 0 0 0 0 0 0 0 0 0 0 0 0 0 0 0 0 0
0 0 0 0 0 0 0 0 0 0 0 0 0 0 0 0 0 0 0 0 0 0 0 0 0 0 0 0 0 0 0 0 0 0 0 0 0 0 0 0 0 0 0
0 0 0 0 0 0 0 0 0 0 0 0 0 0 0 0 0 0 0 0 0 0 0 0 0 0 0 0 0 0 0 0 0 0 0 0 0 0 0 0 0 0 0
0 0 0 0 0 0 0 0 0 0 0 0 0 0 0 0 0 0 0 0 0 0 0 0 0 0 0 0 0 0 0 0 0 0 0 0 0 0 0 0 0 0 0
0 0 0 0 0 0 0 0 0 0 0 0 0 0 0 0 0 0 0 0 0 0 0 0 0 0 0 0 0 0 0 0 0 0 0 0 0 0 0 0 0 0 0
0 0 0 0 0 0 0 0 0 0 0 0 0 0 0 0 0 0 0 0 0 0 0 0 0 0 0 0 0 0 0 0 0 0 0 0 0 0 0 0 0 0 0
0 0 0 0 0 0 0 0 0 0 0 0 0 0 0 0 0 0 0 0 0 0 0 0 0 0 0 0 0 0 0 0 0 0 0 0 0 0 0 0 0 0 0
0 0 0 0 0 0 0 0 0 0 0 0 0 0 0 0 0 0 0 0 0 0 0 0 0 0 0 0 0 0 0 0 0 0 0 0 0 0 0 0 0 0 0
0 0 0 0 0 0 0 0 0 0 0 0 0 0 0 0 0 0 0 0 0 0 0 0 0 0 0 0 0 0 0 0 0 0 0 0 0 0 0 0 0 0 0
0 0 0 0 0 0 0 0 0 0 0 0 0 0 0 0 0 0 0 0 0 0 0 0 0 0 0 0 0 0 0 0 0 0 0 0 0 0 0 0 0 0 0
0 0 0 0 0 0 0 0 0 0 0 0 0 0 0 0 0 0 0 0 0 0 0 0 0 0 0 0 0 0 0 0 0 0 0 0 0 0 0 0 0 0 0
0 0 0 0 0 0 0 0 0 0 0 0 0 0 0 0 0 0 0 0 0 0 0 0 0 0 0 0 0 0 0 0 0 0 0 0 0 0 0 0 0 0 0
0 0 0 0 0 0 0 0 0 0 0 0 0 0 0 0 0 0 0 0 0 0 0 0 0 0 0 0 0 0 0 0 0 0 0 0 0 0 0 0 0 0 0
0 0 0 0 0 0 0 0 0 0 0 0 0 0 0 0 0 0 0 0 0 0 0 0 0 0 0 0 0 0 0 0 0 0 0 0 0 0 0 0 0 0 0
0 0 0 0 0 0 0 0 0 0 0 0 0 0 0 0 0 0 0 0 0 0 0 0 0 0 0 0 0 0 0 0 0 0 0 0 0 0 0 0 0 0 0
0 0 0 0 0 0 0 0 0 0 0 0 0 0 0 0 0 0 0 0 0 0 0 0 0 0 0 0 0 0 0 0 0 0 0 0 0 0 0 0 0 0 0
0 0 0 0 0 0 0 0 0 0 0 0 0 0 0 0 0 0 0 0 0 0 0 0 0 0 0 0 0 0 0 0 0 0 0 0 0 0 0 0 0 0 0
0 0 0 0 0 0 0 0 0 0 0 0 0 0 0 0 0 0 0 0 0 0 0 0 0 0 0 0 0 0 0 0 0 0 0 0 0 0 0 0 0 0 0
0 0 0 0 0 0 0 0 0 0 0 0 0 0 0 0 0 0 0 0 0 0 0 0 0 0 0 0 0 0 0 0 0 0 0 0 0 0 0 0 0 0 0
0 0 0 0 0 0 0 0 0 0 0 0 0 0 0 0 0 0 0 0 0 0 0 0 0 0 0 0 0 0 0 0 0 0 0 0 0 0 0 0 0 0 0
0 0 0 0 0 0 0 0 0 0 0 0 0 0 0 0 0 0 0 0 0 0 0 0 0 0 0 0 0 0 0 0 0 0 0 0 0 0 0 0 0 0 0
0 0 0 0 0 0 0 0 0 0 0 0 0 0 0 0 0 0 0 0 0 0 0 0 0 0 0 0 0 0 0 0 0 0 0 0 0 0 0 0 0 0 0
0 0 0 0 0 0 0 0 0 0 0 0 0 0 0 0 0 0 0 0 0 0 0 0 0 0 0 0 0 0 0 0 0 0 0 0 0 0 0 0 0 0 0
0 0 0 0 0 0 0 0 0 0 0 0 0 0 0 0 0 0 0 0 0 0 0 0 0 0 0 0 0 0 0 0 0 0 0 0 0 0 0 0 0 0 0
Height
5789 5790 5792 5793 5794 5795 5796 5797 5797 5797 5798 5798 5799 5799 5800 5800 5800 5801 5801 5802 5803 5804 5805 5806 5807 5809 5811 5813 5815 5817 5818 5820 5820 5821 5822 5822 5823 5822 5822 5821 5820 5820 5820
5785 5786 5788 5789 5790 5790 5791 5791 5791 5791 5792 5792 5793 5793 5794 5794 5794 5794 5794 5795 5796 5797 5798 5800 5801 5803 5805 5807 5808 5810 5812 5813 5814 5814 5815 5816 5816 5816 5815 5815 5814 5814 5813
5783 5784 5785 5786 5786 5787 5787 5787 5787 5787 5787 5788 5788 5788 5789 5789 5789 5789 5790 5790 5791 5792 5793 5794 5795 5797 5799 5800 5802 5804 5805 5806 5807 5807 5808 5808 5809 5809 5809 5809 5808 5808 5807
5783 5784 5785 5785 5785 5785 5785 5785 5785 5785 5785 5785 5785 5785 5785 5785 5785 5785 5786 5787 5787 5788 5788 5789 5790 5792 5793 5795 5796 5797 5798 5799 5800 5800 5801 5802 5802 5802 5802 5802 5802 5802 5801
5785 5786 5786 5786 5786 5785 5785 5785 5784 5784 5783 5783 5782 5782 5782 5782 5782 5782 5782 5782 5782 5783 5784 5784 5785 5786 5787 5789 5790 5791 5792 5793 5793 5794 5795 5795 5795 5796 5796 5796 5796 5795 5795
5789 5788 5788 5787 5787 5786 5785 5784 5784 5783 5782 5781 5781 5780 5780 5779 5778 5778 5778 5778 5778 5778 5779 5779 5780 5781 5782 5783 5784 5785 5786 5787 5787 5788 5789 5789 5789 5789 5789 5789 5789 5789 5789
5792 5791 5790 5789 5788 5787 5785 5784 5783 5781 5780 5779 5778 5777 5776 5775 5774 5773 5773 5773 5773 5773 5773 5773 5774 5775 5776 5777 5778 5779 5780 5781 5782 5782 5783 5783 5783 5783 5783 5783 5783 5783 5782
5795 5794 5792 5791 5789 5788 5786 5784 5782 5780 5778 5776 5775 5773 5772 5770 5769 5768 5767 5767 5767 5767 5767 5768 5769 5770 5771 5772 5773 5774 5775 5776 5776 5777 5777 5777 5778 5778 5778 5778 5777 5777 5777
5798 5796 5795 5793 5791 5788 5786 5783 5781 5778 5776 5774 5772 5770 5768 5766 5764 5763 5762 5761 5761 5761 5761 5762 5763 5765 5766 5767 5768 5769 5770 5771 5771 5772 5772 5772 5772 5772 5772 5772 5772 5772 5772
5801 5799 5797 5795 5792 5790 5787 5784 5781 5778 5775 5772 5770 5767 5764 5762 5760 5758 5757 5756 5755 5755 5756 5757 5758 5760 5761 5763 5764 5765 5766 5767 5767 5768 5768 5768 5768 5768 5768 5768 5767 5767 5767
5805 5803 5800 5797 5794 5792 5788 5785 5781 5778 5775 5771 5768 5764 5761 5759 5756 5754 5752 5751 5751 5751 5752 5753 5754 5755 5757 5759 5760 5761 5762 5763 5763 5764 5764 5765 5764 5764 5764 5764 5764 5763 5763
5808 5806 5803 5800 5797 5794 5790 5786 5782 5779 5775 5771 5767 5763 5760 5756 5754 5751 5749 5748 5747 5748 5748 5749 5751 5752 5754 5755 5757 5758 5759 5760 5761 5761 5762 5762 5762 5761 5761 5761 5760 5760 5759
5811 5809 5806 5802 5799 5795 5792 5788 5783 5779 5775 5771 5767 5763 5759 5756 5752 5750 5748 5747 5746 5746 5747 5748 5749 5750 5752 5753 5755 5756 5757 5758 5759 5759 5759 5759 5759 5759 5759 5758 5758 5757 5756
5814 5811 5808 5805 5801 5798 5794 5790 5785 5781 5777 5772 5768 5764 5760 5756 5753 5750 5749 5747 5747 5747 5747 5748 5749 5750 5751 5752 5753 5754 5755 5756 5757 5757 5757 5758 5758 5757 5757 5757 5756 5755 5753
5817 5814 5811 5807 5804 5800 5796 5792 5787 5783 5779 5775 5771 5767 5763 5759 5756 5753 5751 5750 5749 5749 5749 5749 5750 5751 5752 5753 5753 5754 5754 5755 5755 5756 5756 5756 5756 5756 5756 5755 5754 5753 5751
5820 5817 5814 5810 5806 5803 5799 5795 5791 5786 5782 5778 5774 5770 5767 5763 5760 5758 5756 5755 5754 5753 5753 5753 5753 5753 5753 5754 5754 5755 5755 5755 5755 5756 5756 5756 5756 5756 5755 5754 5753 5752 5749
5822 5819 5816 5813 5809 5806 5802 5798 5794 5790 5786 5782 5779 5775 5772 5769 5766 5764 5762 5760 5759 5758 5758 5757 5756 5756 5756 5757 5757 5757 5757 5756 5756 5756 5756 5756 5756 5756 5755 5754 5753 5751 5749
5825 5822 5819 5815 5812 5809 5805 5801 5798 5794 5791 5787 5784 5780 5777 5775 5772 5770 5768 5766 5765 5764 5763 5762 5761 5761 5760 5760 5760 5759 5759 5758 5758 5758 5758 5758 5757 5757 5756 5755 5753 5751 5749
5827 5824 5821 5818 5815 5812 5808 5805 5802 5798 5795 5792 5789 5786 5783 5780 5778 5776 5774 5772 5770 5769 5768 5767 5766 5765 5765 5764 5764 5763 5762 5761 5761 5760 5760 5759 5759 5758 5757 5756 5754 5752 5750
5829 5827 5824 5821 5818 5815 5811 5808 5805 5802 5799 5796 5793 5791 5788 5786 5783 5781 5779 5778 5776 5775 5773 5772 5771 5770 5769 5768 5768 5767 5766 5765 5764 5763 5762 5761 5760 5759 5758 5757 5755 5753 5751
5831 5828 5826 5823 5820 5818 5815 5812 5809 5806 5803 5800 5798 5795 5793 5791 5789 5787 5785 5783 5781 5780 5778 5777 5776 5775 5774 5772 5771 5770 5769 5768 5767 5766 5764 5763 5762 5760 5759 5757 5756 5753 5751
5831 5829 5827 5825 5822 5820 5817 5814 5812 5809 5806 5804 5802 5799 5797 5795 5793 5791 5789 5788 5786 5785 5783 5782 5780 5779 5778 5776 5775 5774 5772 5771 5770 5768 5767 5765 5763 5762 5760 5758 5756 5754 5751
5831 5830 5828 5826 5824 5821 5819 5817 5814 5812 5809 5807 5805 5803 5801 5799 5797 5795 5794 5792 5790 5789 5787 5786 5784 5783 5781 5780 5778 5777 5776 5774 5772 5771 5769 5767 5765 5763 5761 5759 5757 5754 5752
5831 5829 5828 5826 5824 5822 5820 5818 5816 5814 5812 5810 5808 5806 5804 5802 5800 5799 5797 5796 5794 5793 5791 5790 5788 5787 5785 5783 5782 5780 5778 5777 5775 5773 5771 5769 5767 5765 5763 5760 5758 5755 5752
5829 5828 5827 5825 5824 5822 5820 5819 5817 5815 5813 5811 5809 5808 5806 5804 5803 5801 5800 5798 5797 5795 5794 5792 5791 5789 5788 5786 5784 5783 5781 5779 5777 5775 5773 5771 5769 5767 5764 5762 5759 5756 5753
5827 5826 5825 5823 5822 5821 5820 5818 5817 5815 5813 5812 5810 5809 5807 5806 5804 5803 5801 5800 5799 5797 5796 5794 5793 5792 5790 5788 5787 5785 5783 5781 5779 5777 5775 5773 5770 5768 5765 5762 5760 5757 5753
Wind_Speed
20 22 23 23 24 24 25 26 26 25 25 24 24 25 24 24 23 23 24 24 25 25 24 25 25 26 25 24 23 23 23 23 24 24 24 23 23 24 24 24 24 25 26
14 15 17 18 19 20 20 19 19 19 19 19 19 20 20 20 20 21 21 22 23 24 24 23 23 23 22 22 22 22 22 22 23 24 23 23 23 23 23 23 23 24 25
6 8 10 10 11 12 12 12 12 12 13 14 14 14 14 14 15 16 17 17 18 19 19 19 19 19 20 21 22 22 23 22 23 23 23 23 23 22 23 23 23 23 23
3 1 1 1 3 3 4 5 5 6 7 8 8 9 9 10 11 13 14 14 15 16 17 18 18 19 20 21 21 22 23 23 23 23 23 23 22 22 22 23 23 23 23
10 8 6 5 4 3 2 2 3 4 4 6 7 8 9 11 12 13 15 16 16 16 17 18 18 19 20 21 21 22 22 22 22 22 23 23 22 23 23 23 23 23 23
12 10 9 8 7 7 5 4 4 5 6 7 9 10 12 13 14 15 16 17 18 18 19 19 19 19 20 21 21 21 21 21 21 22 22 22 22 22 22 22 22 22 23
13 12 11 10 9 8 8 7 7 7 8 8 9 11 13 14 15 17 18 19 20 20 20 20 20 20 20 20 19 20 19 19 20 20 20 20 20 21 21 21 21 21 22
16 15 14 12 11 11 10 10 10 10 10 11 11 12 14 15 16 17 18 19 20 20 20 20 20 20 19 19 19 18 18 18 18 18 18 19 19 19 19 19 20 20 20
18 17 17 16 15 14 13 12 12 11 11 11 12 13 14 15 16 16 17 17 18 19 19 19 19 19 18 18 17 17 17 17 17 17 16 17 17 17 17 17 18 18 19
18 18 17 17 17 17 16 15 14 13 12 12 12 13 13 14 15 15 16 16 16 16 17 17 17 17 17 16 16 15 15 15 15 15 15 14 15 15 15 15 15 16 17
18 18 18 18 18 18 17 17 16 16 15 14 13 13 12 12 12 12 12 13 13 13 13 14 14 14 14 14 13 13 13 12 12 11 12 11 11 11 12 12 13 14 14
18 19 19 18 18 19 19 18 18 17 17 16 15 14 12 11 11 9 8 8 8 9 10 10 10 11 11 10 10 10 10 9 9 9 9 9 8 9 9 10 10 11 12
18 19 19 19 19 19 20 20 19 19 18 17 16 15 14 13 11 8 6 4 3 3 4 5 6 6 7 7 7 7 7 8 7 7 7 6 6 6 6 7 8 9 11
18 18 19 20 20 20 21 21 20 20 19 18 18 17 16 15 13 11 8 6 5 3 2 2 2 3 3 3 4 4 4 5 5 5 4 4 4 5 5 6 8 9 10
17 18 19 20 20 21 21 22 22 21 20 20 19 19 18 18 16 15 13 11 10 9 7 6 5 4 3 3 2 1 1 1 1 2 2 2 2 3 4 5 7 8 10
17 18 19 19 20 20 21 22 22 23 22 21 21 20 20 19 18 18 17 15 14 13 12 11 10 9 8 7 6 5 5 4 3 3 2 3 3 3 4 5 7 8 10
17 18 19 19 20 20 20 21 22 22 23 22 22 22 21 21 20 19 18 17 17 16 16 15 13 13 12 11 10 9 8 7 6 5 5 5 6 6 6 6 8 9 11
17 17 18 19 19 20 20 20 21 21 22 22 22 22 22 22 21 21 20 19 18 17 17 16 15 15 14 13 12 12 11 10 9 8 8 8 7 7 7 8 9 11 12
15 16 17 18 18 19 20 20 20 20 20 21 21 21 21 21 21 21 20 20 19 19 18 18 17 16 15 15 14 14 13 13 12 10 10 9 9 9 9 10 10 11 13
14 15 16 16 17 18 18 19 19 19 19 19 19 19 20 20 20 20 19 19 19 19 18 18 18 17 16 16 15 14 14 14 13 12 11 11 10 10 10 10 11 11 13
12 13 14 15 16 16 17 17 17 17 18 18 18 18 18 18 19 19 19 19 19 19 18 18 17 17 17 16 16 15 15 15 14 14 13 11 11 10 10 10 11 12 13
10 11 12 13 14 15 15 15 16 15 16 16 16 16 16 17 17 17 17 18 18 18 18 17 17 17 16 16 16 16 15 15 14 14 13 13 12 12 11 11 11 12 13
8 9 10 11 12 13 13 14 14 14 14 14 14 14 14 14 15 15 15 16 16 16 16 16 16 16 16 16 16 16 15 15 15 15 15 15 14 14 13 13 13 13 14
8 8 8 9 10 10 11 12 12 12 12 12 12 11 11 12 12 12 12 13 13 13 14 14 14 14 15 14 14 14 15 15 15 15 15 15 15 15 15 15 15 15 15
9 9 8 8 8 9 9 10 10 10 10 10 10 9 9 9 9 9 10 10 10 11 11 12 12 12 13 13 13 13 13 13 14 14 14 14 14 15 15 15 15 16 16
10 10 9 9 9 9 8 8 9 9 8 8 8 7 7 7 6 7 7 7 7 8 8 9 9 10 11 11 11 12 12 12 13 13 13 14 14 14 15 15 15 16 17
Wind_Direction
261 258 259 261 263 265 267 268 267 266 266 266 266 267 265 264 263 261 256 254 255 252 249 248 247 244 242 243 249 253 256 258 259 262 262 263 265 266 268 272 273 273 271
259 259 260 263 265 267 268 267 265 262 263 263 263 263 264 263 260 255 251 249 251 249 249 248 247 246 246 249 253 256 258 260 261 262 263 264 265 265 266 268 270 272 271
264 258 259 263 266 266 266 267 263 262 261 258 259 260 259 257 255 256 254 253 253 253 252 250 250 250 252 253 255 257 260 261 261 263 264 265 265 264 265 266 268 271 273
59 68 60 290 274 266 270 270 265 261 258 257 256 256 253 253 253 257 257 257 258 256 255 255 255 254 255 256 257 259 261 262 262 263 264 264 265 265 265 266 267 269 272
73 70 64 61 54 44 21 334 311 296 283 277 264 261 260 257 259 261 262 264 264 262 261 261 260 259 259 259 259 260 261 262 263 264 264 265 265 265 265 266 266 266 270
65 65 62 59 51 41 30 11 342 311 294 287 277 273 270 268 267 267 267 267 267 266 265 263 262 261 262 262 261 261 261 263 264 265 266 266 267 267 266 267 267 267 268
63 61 55 48 40 30 18 2 345 327 313 301 291 285 280 277 274 273 271 270 268 267 266 265 263 264 264 263 263 263 263 264 266 267 268 269 269 268 269 269 269 270 270
56 53 49 42 34 24 13 1 349 336 325 314 306 297 290 287 284 280 276 271 268 266 264 263 262 262 263 264 264 264 264 265 268 268 269 269 269 270 270 270 271 270 270
52 50 47 42 36 30 21 12 2 352 340 328 318 309 301 295 291 287 280 274 269 264 261 260 260 261 263 263 263 263 264 265 267 269 270 271 270 269 269 270 269 269 270
52 48 44 41 37 32 27 20 13 6 356 344 333 322 314 306 300 293 285 278 271 265 261 259 258 258 260 260 261 261 261 264 266 266 268 271 271 270 269 269 271 273 274
48 45 42 38 35 32 28 23 19 14 7 359 350 341 332 322 314 304 293 282 272 266 262 259 256 255 256 257 257 258 257 260 264 266 268 270 272 273 270 272 274 277 279
44 42 39 36 34 31 28 25 21 17 13 9 4 359 352 343 335 326 312 296 277 265 259 255 252 251 252 250 250 252 253 254 258 265 270 273 276 278 280 282 283 284 286
40 38 36 33 31 29 27 24 22 20 18 17 15 13 11 7 3 359 354 344 321 279 257 246 242 236 236 238 243 247 248 251 258 267 273 277 281 286 292 296 297 298 297
37 34 32 31 29 28 27 26 25 24 23 23 24 24 25 27 30 33 37 44 55 71 96 139 171 183 201 216 230 240 247 251 258 266 272 280 290 299 306 310 313 314 313
36 34 32 30 29 28 28 29 29 29 30 32 33 35 36 40 44 49 55 61 67 74 81 91 104 107 112 121 126 137 189 219 246 278 300 306 313 320 327 329 332 333 333
34 33 32 30 30 30 31 32 33 34 36 38 40 41 43 46 51 55 60 64 68 72 76 79 82 85 90 90 84 83 83 84 76 63 54 50 41 27 14 7 4 2 359
31 30 30 31 31 31 32 33 35 37 39 42 44 46 49 51 55 58 61 64 68 70 72 73 76 79 82 80 78 77 75 74 74 73 72 68 61 50 39 29 21 16 12
29 29 29 29 30 31 32 34 36 39 41 44 47 49 52 55 57 59 62 64 66 67 68 70 72 74 75 75 75 73 71 71 72 73 71 65 59 50 43 36 31 26 21
27 27 27 28 29 31 32 35 37 40 42 45 48 51 53 56 58 60 62 64 65 67 68 69 70 72 72 73 73 71 70 69 69 67 65 61 56 52 48 42 35 29 23
22 23 24 25 26 29 31 34 36 39 42 45 48 51 53 56 58 60 61 63 64 66 67 68 69 70 70 69 68 67 65 63 63 62 62 60 56 51 44 38 31 25 21
15 18 20 21 23 25 28 31 35 38 40 44 48 51 54 56 58 59 61 63 64 65 66 66 66 66 66 66 65 65 64 63 61 59 57 53 47 42 36 30 25 21 18
4 9 12 16 19 22 25 28 32 36 39 42 46 50 54 56 58 59 60 61 62 63 63 63 63 63 63 63 63 61 60 58 55 53 50 47 43 39 34 28 23 19 16
344 351 359 5 10 15 19 22 26 31 36 40 44 48 51 53 56 58 59 59 58 58 58 59 59 59 59 59 58 57 55 53 51 48 46 43 41 38 34 29 25 21 19
327 333 340 347 355 1 7 13 18 23 28 33 38 43 47 50 52 54 56 56 55 54 54 54 54 53 53 53 52 51 49 48 46 43 41 39 38 36 33 30 26 22 19
310 315 321 327 333 341 349 357 3 10 15 20 26 32 37 42 45 48 50 51 51 50 50 49 48 47 46 45 44 43 40 38 36 33 31 28 27 25 23 21 19 16 13
295 299 302 307 313 318 324 331 339 347 354 1 7 14 19 24 29 33 35 37 38 39 39 38 38 36 35 33 32 30 28 26 23 21 18 16 13 11 10 9 7 6 5